User: anonymous   Login
Location: Unspecified
(42.3650°N, 71.1030°W)
Time: 20:36:18
(UTC+00:00)
Language:

Tiros 1 - Orbit

View from above orbital plane
View from above orbital plane
View from above satellite
View from above satellite

Ground track
Ground track

The orbit data is extracted from the following two-line orbital elements,

1 00029U 60002B   24177.25607778  .00000544  00000-0  10710-3 0  9997
2 00029  48.3774 210.6658 0022995  40.9125 319.3508 14.76417894435352
Epoch (UTC): 25 June 2024 06:08:45
Eccentricity: 0.0022995
inclination: 48.3774°
perigee height: 624 km
apogee height: 657 km
right ascension of ascending node: 210.6658°
argument of perigee: 40.9125°
revolutions per day: 14.76417894
mean anomaly at epoch: 319.3508°
orbit number at epoch: 43535

The dashed part of the orbit path shows where the satellite is in the earth's shadow,  

DLR